Weather History for Cortez, CO

Change the Weather History Date:

Saturday, April 20, 2013

  Actual Average Record
Temperature  
Mean Temperature 43 °F 48 °F  
Max Temperature 59 °F 66 °F 74 °F (2012)
Min Temperature 27 °F 31 °F 21 °F (2003)
Degree Days  
Heating Degree Days 22 17  
Month to date heating degree days 398 388  
Since 1 July heating degree days 5996 5918  
Cooling Degree Days 0 0  
Month to date cooling degree days 0 0  
Year to date cooling degree days 0 0  
Moisture  
Dew Point 21 °F    
Average Humidity 41    
Maximum Humidity 59    
Minimum Humidity 23    
Precipitation  
Precipitation 0.03 in 0.04 in 0.03 in (2013)
Month to date precipitation 0.10 0.80  
Year to date precipitation 2.61 3.88  
Sea Level Pressure  
Sea Level Pressure 29.96 in    
Wind  
Wind Speed 8 mph (North)    
Max Wind Speed 28 mph    
Max Gust Speed 35 mph    
Visibility 10 miles    
Events      
T = Trace of Precipitation, MM = Missing Value Source: NWS Daily Summary

Daily Weather History Graph

Daily Weather History Graph

Search for Another Location

Airport:

Trip Planner

Search our weather history database for the weather conditions in past years. The results will help you decide how hot, cold, wet, or windy it might be!

Date:

Astronomy

Apr. 20, 2013 Rise Set
Actual Time 6:32 AM MDT 7:54 PM MDT
Civil Twilight 6:05 AM MDT 8:21 PM MDT
Nautical Twilight 5:32 AM MDT 8:54 PM MDT
Astronomical Twilight 4:58 AM MDT 9:28 PM MDT
Moon 2:48 PM MDT (4/20) 3:17 AM MDT (4/20)
Length of Visible Light 14h 16m
Length of Day
13h 21m
Waxing Gibbous, 71% of the Moon is Illuminated
Apr 20
Waxing Gibbous
Apr 25
Full
May 2
Last Quarter
May 9
New
May 17
First Quarter

Hourly Weather History & Observations

Time (MDT) Temp. Windchill Dew Point Humidity Pressure Visibility Wind Dir Wind Speed Gust Speed Precip Events Conditions
12:53 AM 37.9 °F 35.5 °F 12.0 °F 35% 29.98 in 10.0 mi ENE 3.5 mph - N/A   Scattered Clouds
1:53 AM 35.1 °F - 12.0 °F 39% 29.96 in 10.0 mi Calm Calm - N/A   Mostly Cloudy
2:53 AM 37.0 °F 33.3 °F 15.1 °F 41% 29.92 in 10.0 mi East 4.6 mph - N/A   Partly Cloudy
3:53 AM 34.0 °F 27.2 °F 17.1 °F 50% 29.93 in 10.0 mi NE 8.1 mph - N/A   Overcast
4:53 AM 32.0 °F 25.6 °F 17.1 °F 54% 29.94 in 10.0 mi NE 6.9 mph - N/A   Partly Cloudy
5:53 AM 30.0 °F 26.5 °F 16.0 °F 56% 29.94 in 10.0 mi NE 3.5 mph - N/A   Partly Cloudy
6:53 AM 28.0 °F 22.8 °F 15.1 °F 58% 29.95 in 10.0 mi East 4.6 mph - N/A   Partly Cloudy
7:53 AM 34.0 °F - 18.0 °F 52% 29.97 in 10.0 mi Calm Calm - N/A   Overcast
8:53 AM 41.0 °F - 21.0 °F 45% 29.96 in 10.0 mi Calm Calm - N/A   Overcast
9:53 AM 51.1 °F - 24.1 °F 35% 29.94 in 10.0 mi NNE 6.9 mph - N/A   Mostly Cloudy
10:53 AM 53.1 °F - 25.0 °F 34% 29.93 in 10.0 mi Variable 4.6 mph - N/A   Clear
11:53 AM 55.0 °F - 19.9 °F 25% 29.91 in 10.0 mi WNW 8.1 mph 21.9 mph N/A   Mostly Cloudy
12:45 PM 50.0 °F - 26.6 °F 40% 30.02 in 10.0 mi NW 21.9 mph 34.5 mph N/A   Overcast
12:53 PM 51.1 °F - 27.0 °F 39% 29.94 in 10.0 mi NW 19.6 mph 28.8 mph N/A   Overcast
1:53 PM 54.0 °F - 28.0 °F 37% 29.94 in 10.0 mi NNW 16.1 mph 20.7 mph N/A   Mostly Cloudy
2:53 PM 54.0 °F - 28.9 °F 38% 29.92 in 10.0 mi NW 12.7 mph 19.6 mph 0.03 in   Overcast
3:53 PM 55.9 °F - 27.0 °F 33% 29.92 in 10.0 mi NNW 19.6 mph 25.3 mph N/A   Partly Cloudy
4:53 PM 57.0 °F - 23.0 °F 27% 29.93 in 10.0 mi NW 17.3 mph 26.5 mph N/A   Scattered Clouds
5:53 PM 57.0 °F - 19.9 °F 24% 29.94 in 10.0 mi NW 16.1 mph 27.6 mph N/A   Partly Cloudy
6:53 PM 54.0 °F - 19.9 °F 26% 29.96 in 10.0 mi North 13.8 mph - N/A   Clear
7:53 PM 51.1 °F - 21.9 °F 32% 29.97 in 10.0 mi North 10.4 mph - N/A   Clear
8:53 PM 46.9 °F - 23.0 °F 39% 30.00 in 10.0 mi North 8.1 mph - N/A   Clear
9:53 PM 39.0 °F 35.7 °F 21.9 °F 50% 30.02 in 10.0 mi NE 4.6 mph - N/A   Clear
10:53 PM 37.0 °F 34.5 °F 21.0 °F 52% 30.03 in 10.0 mi NNE 3.5 mph - N/A   Clear
11:53 PM 32.0 °F - 19.9 °F 61% 30.04 in 10.0 mi Calm Calm - N/A   Clear